[[{"header":{"parameterUnit":"m.s-1","parameterCategory":1,"la1":30.2991,"la2":30.254,"lo1":-89.0895,"lo2":-89.0444,"dy":0.0017,"dx":0.0017,"nx":28,"ny":28,"refTime":"2025-04-28T09:00:00:Z","depth":0,"parameterNumber":2,"parameterNumberName":"U-component_of_WINDS"},"data":[0,0,0,0,0,0,0,0,0,0,0,0,0,0,0,0,0,0,0,0,0,0,0,0,0,0,0,0,0,0,0,0,0,0,0,0,0,0,0,0,0,0,0,0,0,0,0,0,0,0,0,0,0,0,0,0,0,0,-2.143,-2.1429,0,-2.1392,-2.1392,-2.1391,-2.1326,-2.1325,-2.1324,-2.1323,-2.1283,-2.1283,-2.1283,0,0,0,0,0,0,0,0,0,0,0,0,0,-2.1447,-2.1447,-2.143,-2.1429,-2.1429,-2.1392,-2.1392,-2.1391,-2.1327,-2.1325,-2.1324,-2.1322,-2.1283,-2.1283,-2.1283,0,0,0,0,0,0,0,0,0,0,0,0,0,-2.1427,-2.1447,-2.143,-2.1392,-2.1389,-2.1392,-2.1392,-2.1391,-2.1327,-2.1325,-2.1323,-2.1322,-2.1283,-2.1283,-2.1283,-2.132,0,0,-2.1284,-2.1284,0,0,0,0,0,0,0,0,-2.1429,-2.1427,-2.1398,-2.1395,-2.1391,-2.1362,-2.1383,-2.1367,-2.1327,-2.135,-2.1323,-2.1321,-2.1311,-2.1309,-2.1305,-2.1318,-2.1317,-2.1284,-2.1284,-2.1284,-2.1284,0,0,0,0,0,0,0,-2.143,-2.1428,-2.1415,-2.1398,-2.1393,-2.1378,-2.1373,-2.138,-2.1341,-2.1348,-2.1343,-2.134,-2.1308,-2.1305,-2.1304,-2.1316,-2.1284,-2.1284,-2.1284,-2.1284,-2.136,-2.1362,0,0,0,0,0,0,-2.1437,-2.143,-2.1416,-2.1414,-2.1406,-2.1379,-2.1373,-2.1373,-2.1341,-2.1334,-2.1341,-2.1337,-2.1306,-2.1304,-2.1302,-2.1344,-2.1284,-2.1284,-2.1284,-2.1358,-2.136,-2.1362,0,0,0,0,0,0,-2.1438,-2.1436,-2.1418,-2.142,-2.1417,-2.138,-2.1381,-2.1373,-2.137,-2.1336,-2.1329,-2.1345,-2.1305,-2.1302,-2.1317,-2.1342,-2.1284,-2.1284,-2.1356,-2.1359,-2.1361,-2.1428,0,0,0,0,0,0,-2.1438,-2.1437,-2.145,-2.1421,-2.1417,-2.1432,-2.1382,-2.1374,-2.1371,-2.1365,-2.1338,-2.1331,-2.1303,-2.1317,-2.1317,-2.1341,-2.1284,-2.1353,-2.1357,-2.136,-2.1423,-2.1433,-2.1441,0,0,0,0,0,-2.1439,-2.147,-2.1451,-2.145,-2.1433,-2.1434,-2.1432,-2.1398,-2.1373,-2.1386,-2.1365,-2.1332,-2.134,-2.1319,-2.1318,-2.1343,-2.1351,-2.1356,-2.136,-2.142,-2.1431,-2.1441,0,0,0,0,0,0,-2.1501,-2.1465,-2.1444,-2.1466,-2.1454,-2.1423,-2.1438,-2.1412,-2.1406,-2.14,-2.1359,-2.1354,-2.1374,-2.136,-2.1338,-2.1378,-2.1341,-2.1345,-2.1386,-2.1397,-2.1406,-2.1408,-2.1284,0,0,0,0,0,-2.1518,-2.1522,-2.149,-2.1513,-2.1508,-2.1475,-2.1474,-2.145,-2.1435,-2.1429,-2.1409,-2.1396,-2.1395,-2.1395,-2.1393,-2.1422,-2.1416,-2.1439,-2.1448,-2.1455,-2.1459,-2.1475,-2.1485,-2.1377,-2.1377,-2.1377,0,0,-2.1551,-2.1532,-2.1537,-2.1525,-2.1512,-2.1518,-2.147,-2.1478,-2.1482,-2.143,-2.1443,-2.1428,-2.1411,-2.1434,-2.1442,-2.1422,-2.1488,-2.1461,-2.1467,-2.1467,-2.148,-2.1491,-2.15,-2.138,-2.1379,-2.1379,0,0,-2.1615,-2.1601,-2.1619,-2.1608,-2.1591,-2.1569,-2.1574,-2.1548,-2.1536,-2.1548,-2.1511,-2.1515,-2.1515,-2.1505,-2.1499,-2.1564,-2.1534,-2.1564,-2.161,-2.1625,-2.1634,-2.1641,-2.1664,-2.1673,-2.1569,-2.1569,-2.1569,0,-2.1659,-2.1665,-2.1631,-2.1642,-2.1638,-2.1594,-2.1612,-2.1603,-2.1586,-2.1585,-2.1563,-2.1564,-2.1549,-2.1569,-2.1585,-2.1582,-2.1587,-2.1566,-2.1636,-2.1643,-2.1649,-2.167,-2.1679,-2.1573,-2.1572,-2.1572,-2.1571,0,-2.172,-2.1726,-2.1742,-2.1728,-2.1726,-2.1741,-2.171,-2.1712,-2.169,-2.1671,-2.1685,-2.1667,-2.166,-2.1664,-2.1641,-2.1682,-2.167,-2.1643,-2.1604,-2.1664,-2.1683,-2.1691,-2.1578,-2.1577,-2.1575,-2.1575,0,0,-2.1819,-2.1788,-2.1794,-2.1788,-2.1767,-2.1771,-2.1784,-2.1779,-2.1783,-2.1773,-2.1783,-2.1786,-2.1762,-2.1756,-2.1732,-2.1747,-2.18,-2.1718,-2.1717,-2.1733,-2.1844,-2.1864,-2.1874,-2.1781,-2.1782,-2.1783,-2.1845,0,-2.1877,-2.1898,-2.1869,-2.1896,-2.1902,-2.1862,-2.1874,-2.1863,-2.1846,-2.1849,-2.1831,-2.1833,-2.1801,-2.1797,-2.181,-2.179,-2.1821,-2.1786,-2.179,-2.179,-2.1794,-2.1884,-2.1904,-2.1963,-2.1853,-2.1854,-2.1855,0,-2.1947,-2.1943,-2.1971,-2.195,-2.1952,-2.1963,-2.1957,-2.196,-2.1947,-2.1935,-2.193,-2.1903,-2.1916,-2.188,-2.1897,-2.1874,-2.1875,-2.1866,-2.1867,-2.1865,-2.1825,-2.1884,-2.1981,-2.199,-2.1867,-2.1866,-2.1865,0,-2.2016,-2.2017,-2.2034,-2.203,-2.2007,-2.2016,-2.2007,-2.1992,-2.1992,-2.1988,-2.1987,-2.1984,-2.1982,-2.1981,-2.1954,-2.193,-2.1975,-2.1937,-2.1965,-2.1966,-2.1974,-2.1974,-2.2073,-2.1977,-2.1977,-2.1976,-2.1976,0,-2.2084,-2.2103,-2.2065,-2.2076,-2.2096,-2.2064,-2.2086,-2.2072,-2.2061,-2.2069,-2.2034,-2.2042,-2.2007,-2.2012,-2.1991,-2.2009,-2.2009,-2.1999,-2.1993,-2.2001,-2.2002,-2.2,-2.1994,-2.1979,-2.1978,-2.1978,-2.1977,0,-2.2163,-2.2139,-2.2155,-2.2133,-2.2128,-2.2144,-2.2125,-2.2134,-2.2117,-2.2128,-2.2128,-2.2101,-2.2105,-2.2079,-2.2078,-2.2064,-2.2092,-2.2079,-2.2096,-2.2092,-2.2121,-2.2119,-2.2221,-2.2233,-2.213,-2.2131,-2.2132,0,-2.2207,-2.2221,-2.2201,-2.2204,-2.2197,-2.2202,-2.2202,-2.2172,-2.2174,-2.2163,-2.2174,-2.2175,-2.2175,-2.2183,-2.2164,-2.2163,-2.215,-2.2186,-2.2149,-2.2158,-2.215,-2.2149,-2.2151,-2.2193,-2.2194,-2.2195,-2.2196,0,-2.2288,-2.2276,-2.2277,-2.2276,-2.2277,-2.2274,-2.2268,-2.2273,-2.2241,-2.2245,-2.2249,-2.2249,-2.225,-2.2252,-2.2248,-2.2239,-2.2213,-2.2208,-2.2215,-2.2222,-2.2232,-2.2227,-2.2116,-2.2205,-2.2204,-2.2204,-2.2203,-2.2203,-2.235,-2.2361,-2.2349,-2.2353,-2.2346,-2.2343,-2.2351,-2.2336,-2.2339,-2.2337,-2.232,-2.2328,-2.2318,-2.231,-2.2304,-2.231,-2.2293,-2.2302,-2.2304,-2.2307,-2.2312,-2.2232,-2.231,-2.2309,-2.2309,-2.2309,-2.2309,0,-2.2429,-2.242,-2.2424,-2.2418,-2.2421,-2.2398,-2.2392,-2.2396,-2.2404,-2.2397,-2.2398,-2.2404,-2.2407,-2.2389,-2.2389,-2.2398,-2.2386,-2.2399,-2.2397,-2.2396,-2.2328,-2.2322,-2.2409,-2.2409,-2.2409,-2.2409,-2.2409,-2.2409,-2.247,-2.2487,-2.2475,-2.249,-2.2481,-2.2489,-2.2487,-2.2485,-2.2479,-2.2488,-2.249,-2.2479,-2.2468,-2.2468,-2.247,-2.2465,-2.2467,-2.2484,-2.2475,-2.241,-2.2401,-2.2391,-2.2386,-2.2485,-2.2485,-2.2542,-2.2543,-2.2543]},{"header":{"parameterUnit":"m.s-1","parameterCategory":1,"la1":30.2991,"la2":30.254,"lo1":-89.0895,"lo2":-89.0444,"dy":0.0017,"dx":0.0017,"nx":28,"ny":28,"refTime":"2025-04-28T09:00:00:Z","depth":0,"parameterNumber":3,"parameterNumberName":"V-component_of_WINDS"},"data":[0,0,0,0,0,0,0,0,0,0,0,0,0,0,0,0,0,0,0,0,0,0,0,0,0,0,0,0,0,0,0,0,0,0,0,0,0,0,0,0,0,0,0,0,0,0,0,0,0,0,0,0,0,0,0,0,0,0,2.8628,2.8628,0,2.8652,2.8652,2.8653,2.872,2.8721,2.8723,2.8724,2.8745,2.8744,2.8743,0,0,0,0,0,0,0,0,0,0,0,0,0,2.8637,2.8636,2.8628,2.8628,2.8629,2.8652,2.8652,2.8653,2.872,2.8722,2.8723,2.8725,2.8745,2.8744,2.8743,0,0,0,0,0,0,0,0,0,0,0,0,0,2.8644,2.8636,2.8628,2.8665,2.8669,2.8652,2.8652,2.8653,2.8719,2.8722,2.8724,2.8726,2.8745,2.8744,2.8743,2.8691,0,0,2.8739,2.8739,0,0,0,0,0,0,0,0,2.8643,2.8644,2.8659,2.8662,2.8666,2.8685,2.8663,2.8666,2.8719,2.87,2.8724,2.8727,2.8723,2.8724,2.8723,2.8692,2.8693,2.8739,2.8738,2.8738,2.8737,0,0,0,0,0,0,0,2.8643,2.8643,2.8637,2.8659,2.8664,2.8679,2.8683,2.8664,2.8699,2.8702,2.8707,2.8709,2.8725,2.8724,2.8724,2.8693,2.8739,2.8738,2.8737,2.8737,2.8622,2.862,0,0,0,0,0,0,2.8638,2.8642,2.8637,2.8638,2.866,2.8677,2.8681,2.8677,2.8699,2.8705,2.8707,2.8712,2.8725,2.8726,2.8725,2.8667,2.8738,2.8737,2.8736,2.8624,2.8622,2.8619,0,0,0,0,0,0,2.8638,2.8636,2.8636,2.8642,2.8643,2.8675,2.867,2.8676,2.8675,2.8703,2.8709,2.87,2.8727,2.8727,2.87,2.8668,2.8736,2.8735,2.8627,2.8624,2.862,2.8549,0,0,0,0,0,0,2.8638,2.8636,2.8617,2.8641,2.8642,2.861,2.8668,2.8675,2.8674,2.868,2.8698,2.8703,2.8729,2.8701,2.8699,2.8668,2.8734,2.863,2.8626,2.8622,2.8554,2.8543,2.8534,0,0,0,0,0,2.8638,2.8595,2.8616,2.8615,2.8619,2.8608,2.8609,2.8641,2.8671,2.8652,2.867,2.8702,2.8672,2.8698,2.8695,2.8664,2.8632,2.8627,2.8622,2.8559,2.8545,2.8534,0,0,0,0,0,0,2.8565,2.8599,2.8622,2.8586,2.8594,2.862,2.8597,2.8626,2.8624,2.8631,2.8669,2.8672,2.864,2.8649,2.8677,2.8616,2.8658,2.8652,2.861,2.8598,2.8588,2.8586,2.8733,0,0,0,0,0,2.8545,2.8535,2.8564,2.8529,2.8532,2.8564,2.856,2.8584,2.8594,2.8597,2.8613,2.8619,2.8612,2.8606,2.86,2.8556,2.8561,2.8533,2.8523,2.8515,2.8509,2.8487,2.8475,2.8602,2.8602,2.8602,0,0,2.8503,2.8521,2.8511,2.8515,2.8524,2.8512,2.8566,2.855,2.8541,2.8594,2.857,2.8582,2.8592,2.8556,2.8541,2.8563,2.8476,2.8508,2.8502,2.85,2.8481,2.8469,2.8458,2.8599,2.8599,2.86,0,0,2.8421,2.8433,2.8406,2.8414,2.8428,2.845,2.8443,2.8465,2.8475,2.8452,2.8492,2.8481,2.8467,2.8473,2.8473,2.8395,2.8425,2.8392,2.8339,2.8318,2.8308,2.8299,2.8271,2.826,2.8386,2.8386,2.8386,0,2.8367,2.8351,2.8388,2.837,2.837,2.842,2.8392,2.8398,2.8409,2.8408,2.8432,2.8417,2.8427,2.8394,2.8375,2.8374,2.8367,2.839,2.8306,2.8298,2.829,2.8264,2.8254,2.8382,2.8382,2.8383,2.8383,0,2.8283,2.8271,2.8248,2.8259,2.8257,2.8234,2.8267,2.826,2.8285,2.8303,2.8279,2.8294,2.8292,2.8286,2.8309,2.8257,2.827,2.83,2.8343,2.8274,2.825,2.824,2.8376,2.8378,2.8379,2.838,0,0,2.8154,2.8188,2.8178,2.8184,2.8204,2.8195,2.8174,2.8175,2.8168,2.8174,2.8158,2.8145,2.8174,2.8175,2.8199,2.818,2.8118,2.8213,2.8214,2.8195,2.8061,2.8038,2.8025,2.8138,2.8136,2.8135,2.806,0,2.8077,2.8045,2.8078,2.8039,2.8029,2.8076,2.8059,2.8068,2.8085,2.8078,2.8097,2.8088,2.8126,2.8127,2.811,2.8129,2.8091,2.8135,2.8122,2.8121,2.8118,2.8013,2.7988,2.7916,2.8051,2.8049,2.8048,0,2.7981,2.7985,2.7945,2.7968,2.7965,2.7949,2.7952,2.7945,2.7957,2.7971,2.7973,2.8003,2.7984,2.8027,2.8001,2.803,2.8027,2.8035,2.8034,2.8033,2.808,2.8009,2.7894,2.7883,2.8033,2.8035,2.8036,0,2.7891,2.7886,2.7862,2.7865,2.7892,2.7879,2.789,2.7904,2.7902,2.7905,2.7904,2.7904,2.7904,2.7903,2.7932,2.796,2.7902,2.7947,2.7913,2.7912,2.7898,2.7898,2.778,2.7896,2.7896,2.7897,2.7897,0,2.7801,2.7774,2.7822,2.7807,2.7779,2.7818,2.7789,2.7804,2.7816,2.7805,2.7845,2.7833,2.7873,2.7865,2.7888,2.7863,2.7862,2.7872,2.7879,2.7869,2.7867,2.7867,2.7872,2.7894,2.7894,2.7895,2.7895,0,2.7695,2.7726,2.7703,2.7731,2.7737,2.7715,2.7739,2.7726,2.7746,2.7731,2.7729,2.7761,2.7754,2.7784,2.7781,2.7796,2.7759,2.7774,2.7755,2.776,2.7724,2.7726,2.7601,2.7587,2.7712,2.771,2.7709,0,2.7635,2.7616,2.7643,2.7639,2.7647,2.764,2.7639,2.7677,2.7674,2.7687,2.7672,2.7669,2.7668,2.7654,2.7676,2.7674,2.7689,2.7645,2.7689,2.768,2.7688,2.7689,2.7687,2.7636,2.7634,2.7633,2.7632,0,2.7525,2.7542,2.754,2.7543,2.7542,2.7546,2.7553,2.7547,2.7587,2.7582,2.7576,2.7575,2.7574,2.757,2.7573,2.7583,2.7613,2.7618,2.761,2.7599,2.759,2.7594,2.773,2.7621,2.7622,2.7623,2.7623,2.7624,2.7441,2.7427,2.7443,2.744,2.745,2.7455,2.7445,2.7465,2.7461,2.7464,2.7486,2.7476,2.7489,2.7497,2.7504,2.7496,2.7516,2.7504,2.7501,2.7497,2.7491,2.7591,2.7496,2.7497,2.7497,2.7497,2.7498,0,2.7333,2.7347,2.7343,2.7353,2.735,2.7381,2.7391,2.7386,2.7377,2.7387,2.7387,2.738,2.7376,2.7399,2.7399,2.7388,2.7402,2.7386,2.7387,2.7389,2.7473,2.748,2.7375,2.7375,2.7375,2.7375,2.7375,2.7375,2.7277,2.7255,2.7273,2.7257,2.7271,2.7262,2.7265,2.727,2.7279,2.727,2.7268,2.7284,2.7299,2.73,2.7298,2.7305,2.7303,2.7282,2.7293,2.7371,2.7383,2.7394,2.7401,2.7281,2.7281,2.721,2.7209,2.7209]}]]